Billings, MT

1:33 AM MST on November 22, 2017 (GMT -0700)
Billings Logan International

Weather History for KBIL - January, 2012

Change the Weather History Date:

Monday, January 9, 2012

  Actual Average Record
Temperature  
Mean Temperature 41 °F 27 °F  
Max Temperature 50 °F 36 °F 67 °F (1953)
Min Temperature 32 °F 17 °F -18 °F (1973)
Degree Days  
Heating Degree Days 24 38  
Month to date heating degree days 240 349  
Since 1 July heating degree days 2679 3170  
Cooling Degree Days 0 0  
Month to date cooling degree days 0 0  
Year to date cooling degree days 0 0  
Moisture  
Dew Point 18 °F    
Average Humidity 39    
Maximum Humidity 48    
Minimum Humidity 29    
Precipitation  
Precipitation 0.00 in 0.02 in 0.42 in (1971)
Month to date precipitation 0.00 0.14  
Year to date precipitation 0.00 0.14  
Snow  
Snow 0.00 in 0.30 in 5.70 in (1997)
Month to date snowfall 0.0 2.5  
Since 1 July snowfall 9.3 22.4  
Snow Depth 0.00 in    
Sea Level Pressure  
Sea Level Pressure 30.16 in    
Wind  
Wind Speed 19 mph (WSW)    
Max Wind Speed 32 mph    
Max Gust Speed 38 mph    
Visibility 10 miles    
Events      
T = Trace of Precipitation, MM = Missing Value Source: NWS Daily Summary

Daily Weather History Graph

Daily Weather History Graph

Search for Another Location

Airport or City:

Trip Planner

Search our weather history database for the weather conditions in past years. The results will help you decide how hot, cold, wet, or windy it might be!

Date:

Astronomy

Jan. 09, 2012 Rise Set
Actual Time 7:54 AM MST 4:48 PM MST
Civil Twilight 7:20 AM MST 5:22 PM MST
Nautical Twilight 6:43 AM MST 5:59 PM MST
Astronomical Twilight 6:07 AM MST 6:35 PM MST
Moon 5:41 PM MST (1/9) 7:53 AM MST (1/9)
Length of Visible Light 10h 01m
Length of Day
8h 53m
Full, 100% of the Moon is Illuminated
Jan 9
Full
Jan 16
Last Quarter
Jan 23
New
Jan 30
First Quarter
Feb 7
Full

Hourly Weather History & Observations

Time (MST) Temp. Windchill Dew Point Humidity Pressure Visibility Wind Dir Wind Speed Gust Speed Precip Events Conditions
12:53 AM 33.1 °F 22.6 °F 15.1 °F 48% 30.22 in 10.0 mi SW 16.1 mph - N/A   Clear
1:53 AM 33.1 °F 21.9 °F 15.1 °F 48% 30.22 in 10.0 mi SW 18.4 mph 25.3 mph N/A   Clear
2:53 AM 34.0 °F 26.0 °F 15.1 °F 46% 30.25 in 10.0 mi WSW 10.4 mph - N/A   Clear
3:53 AM 34.0 °F 22.7 °F 15.1 °F 46% 30.24 in 10.0 mi WSW 19.6 mph - N/A   Clear
4:53 AM 33.1 °F 22.6 °F 15.1 °F 48% 30.25 in 10.0 mi SW 16.1 mph 21.9 mph N/A   Clear
5:53 AM 34.0 °F 22.1 °F 15.1 °F 46% 30.25 in 10.0 mi WSW 21.9 mph - N/A   Clear
6:53 AM 34.0 °F 21.8 °F 15.1 °F 46% 30.24 in 10.0 mi WSW 23.0 mph - N/A   Clear
7:53 AM 34.0 °F 21.8 °F 15.1 °F 46% 30.23 in 10.0 mi WSW 23.0 mph 33.4 mph N/A   Clear
8:53 AM 35.6 °F 22.7 °F 15.8 °F 44% 30.15 in 10.0 mi WSW 28.8 mph 38.0 mph N/A   Clear
9:53 AM 37.9 °F 28.2 °F 16.0 °F 41% 30.23 in 10.0 mi SW 18.4 mph - N/A   Clear
10:53 AM 43.0 °F 34.2 °F 17.1 °F 35% 30.20 in 10.0 mi WSW 20.7 mph - N/A   Clear
11:53 AM 48.0 °F - 19.0 °F 32% 30.19 in 10.0 mi WSW 19.6 mph 27.6 mph N/A   Clear
12:53 PM 48.9 °F - 19.0 °F 31% 30.16 in 10.0 mi WSW 18.4 mph 27.6 mph N/A   Clear
1:53 PM 48.0 °F - 19.0 °F 32% 30.14 in 10.0 mi SW 16.1 mph - N/A   Partly Cloudy
2:53 PM 50.0 °F - 19.0 °F 29% 30.11 in 10.0 mi WSW 21.9 mph 27.6 mph N/A   Partly Cloudy
3:53 PM 48.0 °F - 19.0 °F 32% 30.10 in 10.0 mi WSW 17.3 mph 26.5 mph N/A   Partly Cloudy
4:53 PM 45.0 °F 36.9 °F 19.9 °F 37% 30.10 in 10.0 mi WSW 20.7 mph 27.6 mph N/A   Partly Cloudy
5:53 PM 43.0 °F 35.1 °F 19.9 °F 40% 30.11 in 10.0 mi WSW 17.3 mph - N/A   Clear
6:53 PM 43.0 °F 33.8 °F 19.9 °F 40% 30.09 in 10.0 mi WSW 23.0 mph - N/A   Clear
7:53 PM 43.0 °F 34.8 °F 21.0 °F 42% 30.09 in 10.0 mi WSW 18.4 mph - N/A   Clear
8:53 PM 42.1 °F 34.5 °F 21.0 °F 43% 30.08 in 10.0 mi SW 15.0 mph - N/A   Clear
9:53 PM 42.1 °F 34.2 °F 21.0 °F 43% 30.07 in 10.0 mi WSW 16.1 mph - N/A   Scattered Clouds
10:53 PM 39.0 °F 30.6 °F 21.0 °F 49% 30.06 in 10.0 mi WSW 15.0 mph - N/A   Scattered Clouds
11:53 PM 39.0 °F 31.4 °F 21.0 °F 49% 30.06 in 10.0 mi WSW 12.7 mph - N/A   Mostly Cloudy